Location: *
(52.2090°N, 4.1550°W)
Time: 20:14:22
(UTC+00:00)

MOS 1 Rocket - Pass Details

Date: 19 July 2019
Orbit: 615 x 830 km, 97.5° (Epoch: 18 August)

Event Time Altitude Azimuth Distance (km) Brightness Sun altitude
Rises 22:04:17 0° 17° (NNE) 2,944 7.2 -11.0°
Reaches altitude 10° 22:06:31 10° 23° (NNE) 2,052 6.2 -11.2°
Maximum altitude 22:10:52 50° 99° (E) 848 3.5 -11.5°
Enters shadow 22:14:40 14° 173° (S) 1,855 4.9 -11.8°
